Location: ??????
(41.3164°N, 22.6615°E)
Time: 07:04:59
(UTC+00:00)

CUBEBUG 2 - Pass Details

Date: 30 June 2022
Orbit: 584 x 693 km, 97.7° (Epoch: 07 August)

Event Time Altitude Azimuth Distance (km) Brightness Sun altitude
Rises 01:51:44 0° 6° (N) 2,827 ? -10.8°
Reaches altitude 10° 01:53:56 10° 2° (N) 1,930 ? -10.5°
Maximum altitude 01:57:58 51° 287° (WNW) 761 ? -9.9°
Enters shadow 02:01:52 11° 212° (SSW) 1,869 ? -9.4°
